Newark, NJ

11:15 PM EDT on June 27, 2017 (GMT -0400)
Newark International

Weather History for KEWR - April, 2014

Change the Weather History Date:

Friday, April 11, 2014

  Actual Average Record
Temperature  
Mean Temperature 65 °F 51 °F  
Max Temperature 77 °F 60 °F 87 °F (2011)
Min Temperature 52 °F 42 °F 29 °F (1976)
Degree Days  
Heating Degree Days 0 14  
Month to date heating degree days 151 173  
Since 1 July heating degree days 4860 4517  
Cooling Degree Days 0 0  
Month to date cooling degree days 0 0  
Year to date cooling degree days 0 1  
Growing Degree Days 14 (Base 50)    
Moisture  
Dew Point 41 °F    
Average Humidity 46    
Maximum Humidity 65    
Minimum Humidity 27    
Precipitation  
Precipitation T in 0.15 in 0.78 in (1934)
Month to date precipitation 1.17 1.62  
Year to date precipitation 12.54 12.22  
Snow  
Snow 0.00 in 0.00 in T in (1986)
Month to date snowfall 0.0 0.5  
Since 1 July snowfall 60.7 28.1  
Snow Depth 0.00 in    
Sea Level Pressure  
Sea Level Pressure 29.99 in    
Wind  
Wind Speed 10 mph (WSW)    
Max Wind Speed 21 mph    
Max Gust Speed 36 mph    
Visibility 10 miles    
Events Rain    
T = Trace of Precipitation, MM = Missing Value Source: NWS Daily Summary

Daily Weather History Graph

Daily Weather History Graph

Search for Another Location

Airport or City:

Trip Planner

Search our weather history database for the weather conditions in past years. The results will help you decide how hot, cold, wet, or windy it might be!

Date:

Astronomy

Apr. 11, 2014 Rise Set
Actual Time 6:24 AM EDT 7:31 PM EDT
Civil Twilight 5:56 AM EDT 8:00 PM EDT
Nautical Twilight 5:22 AM EDT 8:33 PM EDT
Astronomical Twilight 4:47 AM EDT 9:08 PM EDT
Moon 4:08 PM EDT (4/11) 4:19 AM EDT (4/11)
Length of Visible Light 14h 03m
Length of Day
13h 07m
Waxing Gibbous, 87% of the Moon is Illuminated
Apr 11
Waxing Gibbous
Apr 15
Full
Apr 22
Last Quarter
Apr 29
New
May 6
First Quarter

Hourly Weather History & Observations

Time (EDT) Temp. Dew Point Humidity Pressure Visibility Wind Dir Wind Speed Gust Speed Precip Events Conditions
12:51 AM 55.9 °F 30.9 °F 39% 30.02 in 10.0 mi SSW 10.4 mph 16.1 mph N/A   Overcast
1:51 AM 55.0 °F 32.0 °F 42% 29.99 in 10.0 mi South 9.2 mph - N/A   Overcast
2:51 AM 54.0 °F 33.1 °F 45% 29.97 in 10.0 mi South 5.8 mph - N/A   Mostly Cloudy
3:51 AM 54.0 °F 35.1 °F 49% 29.96 in 10.0 mi SW 8.1 mph - N/A   Mostly Cloudy
4:51 AM 53.1 °F 35.1 °F 50% 29.96 in 10.0 mi SW 9.2 mph - N/A   Mostly Cloudy
5:51 AM 53.1 °F 36.0 °F 52% 29.97 in 10.0 mi SW 9.2 mph - N/A   Mostly Cloudy
6:51 AM 55.0 °F 37.0 °F 51% 29.99 in 10.0 mi SW 9.2 mph 18.4 mph N/A   Overcast
7:51 AM 55.9 °F 37.9 °F 51% 30.02 in 10.0 mi West 5.8 mph - N/A   Overcast
8:51 AM 57.9 °F 39.0 °F 49% 30.03 in 10.0 mi SSW 10.4 mph - N/A   Overcast
9:51 AM 62.6 °F 39.2 °F 42% 30.02 in 10.0 mi SW 12.7 mph - N/A   Overcast
10:51 AM 68.0 °F 39.0 °F 35% 30.04 in 10.0 mi SW 10.4 mph 21.9 mph N/A   Overcast
11:51 AM 69.1 °F 41.0 °F 36% 30.01 in 10.0 mi WSW 10.4 mph 18.4 mph N/A   Overcast
12:51 PM 73.0 °F 44.1 °F 35% 29.99 in 10.0 mi WSW 12.7 mph 18.4 mph N/A   Overcast
1:51 PM 75.0 °F 44.1 °F 33% 29.96 in 10.0 mi SW 11.5 mph 19.6 mph N/A   Mostly Cloudy
2:51 PM 75.0 °F 43.0 °F 32% 29.94 in 10.0 mi SSW 11.5 mph - N/A   Overcast
3:51 PM 73.4 °F 39.2 °F 29% 29.93 in 10.0 mi SE 9.2 mph 20.7 mph N/A   Overcast
4:51 PM 75.0 °F 39.0 °F 27% 29.93 in 10.0 mi SW 16.1 mph 27.6 mph N/A   Overcast
5:30 PM 69.8 °F 46.4 °F 43% 29.95 in 10.0 mi NNW 18.4 mph 34.5 mph N/A   Overcast
5:51 PM 69.1 °F 45.0 °F 42% 29.96 in 10.0 mi WNW 17.3 mph 24.2 mph N/A   Overcast
6:51 PM 66.0 °F 46.9 °F 50% 29.96 in 10.0 mi NW 17.3 mph 28.8 mph N/A   Overcast
7:51 PM 64.0 °F 48.0 °F 56% 29.99 in 10.0 mi NNW 8.1 mph - N/A   Overcast
8:51 PM 63.0 °F 48.9 °F 60% 30.01 in 10.0 mi NW 9.2 mph - N/A   Mostly Cloudy
9:51 PM 62.1 °F 50.0 °F 65% 30.02 in 10.0 mi WNW 4.6 mph - 0.00 in   Overcast
10:51 PM 61.0 °F 50.0 °F 67% 30.01 in 10.0 mi NE 3.5 mph - 0.00 in Rain Light Rain
11:51 PM 60.1 °F 50.0 °F 69% 30.01 in 10.0 mi ESE 3.5 mph - 0.00 in   Overcast